{"data":{"norad_id":52663,"epoch":"2026-05-25T01:08:35.337408Z","epoch_age_seconds":61018,"freshness":"FRESH","line1":"1 52663U 22053H   26145.04763122  .00000002  00000+0  18235-4 0  9991","line2":"2 52663  53.2140 171.3404 0001280  70.5108 289.6022 15.08835622222578","mean_motion":15.08835622,"eccentricity":0.000128,"inclination_deg":53.214,"raan_deg":171.3404,"arg_perigee_deg":70.5108,"mean_anomaly_deg":289.6022,"bstar":1.8235e-5,"rev_number":22257,"period_min":95.437831597006,"perigee_km":538.87128038835,"apogee_km":540.64226119368,"semimajor_km":6917.893770791,"source":"CELESTRAK","updated_at":"2026-05-25T13:38:17.230472Z"}}